Regional Weather Roundup
Issued by NWS Upton, NY

Current Version | Previous Version | Graphics & Text | Print | Product List | Glossary Off
Versions: 1 2 3 4 5 6 7 8 9 10 11 12 13 14 15 16 17 18 19 20 21 22 23 24 25 26 27 28 29 30 31 32 33 34 35 36 37 38 39 40 41 42 43 44 45 46 47 48

000
ASUS41 KOKX 281305
RWROKX

REGIONAL WEATHER ROUNDUP
NATIONAL WEATHER SERVICE NEW YORK NY
800 AM EST FRI NOV 28 2014

NOTE: "FAIR" INDICATES FEW OR NO CLOUDS BELOW 12,000 FEET WITH NO
SIGNIFICANT WEATHER AND/OR OBSTRUCTIONS TO VISIBILITY.

NYZ071-072-176-178-NJZ106-104-281400-
NEW YORK CITY METRO AREA


CITY           SKY/WX    TMP DP  RH WIND       PRES   REMARKS
CENTRAL PARK   CLEAR     32  22  66 VRB5      30.16R WCI  27
LAGUARDIA APRT PTCLDY    32  23  69 NW14      30.14R WCI  22
KENNEDY INTL   PTCLDY    33  21  61 NW15      30.15R WCI  23
NEWARK/LIBERTY PTCLDY    32  25  75 W6        30.17R WCI  26
BRNX BOT. GARD   N/A    N/A N/A N/A NW8       30.17R
TETERBORO      CLEAR     31  23  72 NW6       30.15R WCI  25
$$

NYZ177-179-078>081-281400-
LONG ISLAND NEW YORK

CITY           SKY/WX    TMP DP  RH WIND       PRES   REMARKS
FARMINGDALE    CLEAR     33  22  63 NW7       30.13R WCI  27
ISLIP          PTCLDY    33  23  66 NW13      30.11R WCI  24
SHIRLEY        CLEAR     33  24  69 NW9       30.12R WCI  25
WESTHAMPTON    PTCLDY    34  23  64 NW14      30.12R WCI  25
MONTAUK POINT    N/A     35  25  66 NW16G28   30.08R WCI  25
$$

NYZ052-065-067-281400-
HUDSON VALLEY

CITY           SKY/WX    TMP DP  RH WIND       PRES   REMARKS
WHITE PLAINS   PTCLDY    30  22  72 NW10      30.11R WCI  21
NEWBURGH       PTCLDY    23  21  93 W7        30.13R WCI  15
MONTGOMERY     CLEAR     26  19  74 NW10      30.13R WCI  16
POUGHKEEPSIE   MOCLDY    22  18  85 CALM      30.14R
ALBANY         PTCLDY    26  18  71 W12       30.12R WCI  16
$$

NJZ001-105-106-008-010-013-015-019>022-104-281400-
NEW JERSEY

CITY           SKY/WX    TMP DP  RH WIND       PRES   REMARKS
NEWARK/LIBERTY PTCLDY    32  25  75 W6        30.17R WCI  26
TETERBORO      CLEAR     31  23  72 NW6       30.15R WCI  25
CALDWELL       CLEAR     29  21  72 NW6       30.17R WCI  23
MORRISTOWN     PTCLDY    32  25  74 NW7       30.17R WCI  26
SOMERVILLE     CLEAR     28  24  85 VRB3      30.17R
SUSSEX         PTCLDY    23  21  92 CALM      30.15R
ANDOVER          N/A     28  21  75 N6        30.16R WCI  22
TRENTON        CLOUDY    31  23  72 W6        30.18R WCI  25
MILLVILLE      CLEAR     33  24  69 W9        30.22R WCI  25
ATLANTIC CITY  CLEAR     32  24  72 W8        30.20R WCI  25
WRIGHTSTOWN    CLEAR     32  24  73 NW7       30.16R WCI  25
TOMS RIVER     CLEAR     30  25  80 W3        30.18R
BELMAR         CLEAR     30  21  69 W10       30.16R WCI  21
$$

PAZ047>061-062-071-281400-
EASTERN PENNSYLVANIA

CITY           SKY/WX    TMP DP  RH WIND       PRES   REMARKS
PHILADELPHIA   PTCLDY    34  21  59 NW13G22   30.22R WCI  25
ALLENTOWN      CLEAR     30  21  69 NW8       30.19R WCI  22
SCRANTON       MOCLDY    27  21  78 NW10      30.17R WCI  17
$$

CTZ002-004>006-009-010-012-RIZ004-006-007-MAZ004-011-015-281400-
SOUTHERN NEW ENGLAND
 IN CT

CITY           SKY/WX    TMP DP  RH WIND       PRES   REMARKS
BRADLEY INTL   MOCLDY    31  22  69 NW9       30.08R WCI  23
HARTFORD       PTCLDY    31  21  66 W8G18     30.10R WCI  23
DANBURY        CLEAR     26  19  74 CALM      30.12R
WTRBRY/OXFORD  PTCLDY    27  18  69 NW9       30.08R WCI  17
BRIDGEPORT     PTCLDY    31  24  75 W8        30.12R WCI  23
MERIDEN        CLEAR     30  21  69 N3        30.11R
NEW HAVEN      PTCLDY    33  25  72 NW5       30.12R WCI  29
CHESTER        FAIR      32  25  74 NW9       30.08R WCI  24
GROTON         CLEAR     31  26  82 NW12      30.07R WCI  22
WILLIMANTIC    MOCLDY    30  25  81 VRB3      30.07R

 IN RI

CITY           SKY/WX    TMP DP  RH WIND       PRES   REMARKS
PROVIDENCE     MOCLDY    31  25  78 NW8       30.05R WCI  23
BLOCK ISLAND   CLOUDY    34  23  64 NW12G26   30.04R WCI  25
WESTERLY       CLEAR     30  25  81 NW7       30.07R WCI  23

 IN MA

CITY           SKY/WX    TMP DP  RH WIND       PRES   REMARKS
BOSTON         LGT SNOW  29  26  89 NW8       30.05R VSB 1   WCI  21
WORCESTER      MOCLDY    25  21  85 NW8       30.01R WCI  16
WESTFIELD      CLOUDY    30  24  78 NW6       30.08R WCI  24
PROVINCETOWN   CLOUDY    37  34  87 NW24G35   29.98R WCI  26
NANTUCKET      CLOUDY    36  32  85 NW17G25   29.96S WCI  26
$$

ANZ330-335-338-340-345-350-353-355-281400-
COASTAL MARINE OBSERVATIONS


STATION/POSITION TIME  SKY/WX   TEMP    WIND        PRES    VSBY  WAVE
                                AIR SEA DIR/SP/G                  HT/PER
                 (UTC)          (F)     (DEG/KT/KT) (MB)    (MI)  (FT/S)
NY HARB ENTRANCE 1300            36 54  320/ 21/ 27 1020.4          3/ 4
4S FIRE IS       1300               52                N/A           3/ 9
20S FIRE ISLAND  1300            38 54  320/ 23/ 27 1019.3          5/ 5
23SW MTP         1300                                 N/A           5/ 4
HUDSON CANYON    1300            41 58  320/ 23/ 31 1018.3          8/ 6
EXECUTION ROCKS  1300            36 47  320/ 14/ 17   N/A
WESTERN LI SOUND 1300            34     330/ 12/ 16   N/A           0
CENTRAL LI SOUND 1200            34 50  320/ 19/ 23   N/A           3/ 3
EASTERN LI SOUND 1200            35 51  320/ 16/ 21   N/A
ROBBINS REEF     1300            32     310/ 10/ 12 1019.8
$$


>>>>>>>>>>>>>>>>>>>>>>>>>>>> KEY <<<<<<<<<<<<<<<<<<<<<<<<<<<
>                                                          <
>     SKY/WX - SKY CONDITION/PRESENT WEATHER               <
>     TMP    - TEMPERATURE IN FAHRENHEIT                   <
>     DP     - DEWPOINT IN FAHRENHEIT                      <
>     RH     - RELATIVE HUMIDITY IN PERCENT                <
>     WIND   - DIRECTION AND SPEED IN MPH                  <
>     PRES   - MEAN SEA LEVEL PRESSURE IN INCHES OF HG     <
>     WCI    - WIND CHILL INDEX                            <
>     VSB    - VISIBILITY IN MILES                         <
>     HX     - HEAT INDEX                                  <
>     TC     - TEMPERATURE IN CELSIUS                      <
>     VRB    - VARIABLE WIND DIRECTION                     <
>                                                          <
>>>>>>>>>>>>>>>>>>>>>>>>>>>> KEY <<<<<<<<<<<<<<<<<<<<<<<<<<<





USA.gov is the U.S. government's official web portal to all federal, state and local government web resources and services.